Dean International
Flight School

Career Spotlight

Mika

Mika

Congratulations to Mika from Khazakstan. She recently sent us this photo of her flying an Airbus airliner.

More...
Mika's Success Story
close

Congratulations to Mika from Khazakstan. She recently sent us this photo of her flying an Airbus airliner.

Mario

Mario

My dreams could not have been realized if I wouldn't have been part of the Dean International family.

More...
Mario's Success Story
close

"My dreams could not have been realized if I wouldn't have been part of the Dean International family. Thank you Robert, thanks to all my co-workers, and thanks to all of my students!"

Fernando

Fernando

I am now working as a First Officer at TACA and am enjoying every moment of it.

More...
Fernando's Success Story
close

"Will never forget my time of flight training at Dean International. I am now working as a First Officer at TACA and am enjoying every moment of it."

Alvaro

Alvaro

Because of the flight time I was able to built while instructing, I got the experience needed to apply to an airline in Colombia.

More...
Alvaro's Success Story
close

Dean alumnus Alvaro Londoño currently flies with Tampa Cargo. He says of his experience at Dean: "I want to take this opportunity to thank you for giving me the chance to build my experience and expand my knowledge in Dean International. Because of the flight time I was able to built flight instructing, I got the experience needed to apply to an airline in Colombia."

Ralph

Ralph

Every Aruban student of Dean International has made it into Tiara Air Aruba, that is very nice.

More...
Ralph's Success Story
close

"Next to me is my Co-Pilot, Elison. This picture was taken on our first flight together, which was almost exactly 5 years after I finished at Dean International. [...] Every Aruban student of Dean International has made it into Tiara Air Aruba. [...] The future looks bright here in Aruba."

Rohaan

Rohaan

The [..] staff will all work diligently to help you finish your certificates as safely and efficiently as possible.

More...
Rohaan's Success Story
close

After receiving very hard times from other flight schools [...], I came to Dean International where Robert Dean personally sat down with me and gave me a financial and chronological look into how much remained to finish my private pilot certificate. Through his hard efforts as an instructor and mentor, I was able to finish my private pilot certificate within one week.

Welcome to Dean International

In over two decades, Dean International has educated over 7,000 pilots from all over the world, including over 1,000 students from India alone. By offering a great training experience, a friendly service staff, an ample variety of aircraft, and by improving constantly, we have become one of the largest, most prestigious FAA 141-approved flight schools in North America. Located in Miami, Florida, USA, our flight school offers an ideal location for year-round, "learn to fly" weather, flight training. Dean International is not only well-equipped to provide services to professional trainees but also caters to General Aviation renters. Visit or contact our headquarters at Kendall-Tamiami Executive Airport located in Miami, FL today to learn more about us, or simply read more about our programs if you are an international student interested in joining our school.

Local Airport Information
TAF FOR KTMB (Issued: Sat, April 25th 2015 9:06 PM UTC)
TAF
      AMD KTMB 252104Z 2521/2618 26011KT P6SM FEW045 SCT060
      FM260000 23007KT P6SM FEW040
      FM261400 25014KT P6SM FEW040
     
METAR FOR KTMB (Issued: Sat, April 25th 2015 10:53 PM UTC):
KTMB 252253Z 26011KT 10SM CLR 31/22 A2985 RMK AO2 SLP106 T03110217

This weather information is provided by the National Weather Service.
It is automatically refreshed every three minutes.
TAF FOR KHST (Issued: Sat, April 25th 2015 4:09 PM UTC)
TAF KHST 2516/2622 17010G15KT 9999 FEW050 QNH2990INS
      BECMG 2602/2603 22006KT 9999 FEW250 QNH2986INS
      BECMG 2611/2612 22010G15KT 9999 FEW050 QNH2988INS
      BECMG 2614/2615 23012G18KT 9999 FEW050 QNH2984INS TX31/2620Z TN24/2611Z
     
METAR FOR KHST (Issued: Sat, April 25th 2015 10:58 PM UTC):
KHST 252258Z AUTO 19011KT 10SM CLR 30/23 A2985 RMK AO2 SLP111 T03010229

This weather information is provided by the National Weather Service.
It is automatically refreshed every three minutes.
TAF FOR KOPF (Issued: Sat, April 25th 2015 9:06 PM UTC)
TAF
      AMD KOPF 252104Z 2521/2618 16010KT P6SM VCSH FEW035 SCT050
      FM260000 23007KT P6SM FEW040
      FM261400 25014KT P6SM FEW040
     
METAR FOR KOPF (Issued: Sat, April 25th 2015 10:53 PM UTC):
KOPF 252253Z 24009KT 10SM FEW049 32/21 A2984 RMK AO2 SLP105 T03170211

This weather information is provided by the National Weather Service.
It is automatically refreshed every three minutes.
TAF FOR KMIA (Issued: Sat, April 25th 2015 9:09 PM UTC)
TAF
      AMD KMIA 252104Z 2521/2618 14010KT P6SM VCSH SCT025 SCT035 BKN050
      FM260000 23007KT P6SM FEW040
      FM261400 25014KT P6SM FEW040
     
METAR FOR KMIA (Issued: Sat, April 25th 2015 10:53 PM UTC):
KMIA 252253Z 26009KT 10SM FEW044 32/20 A2984 RMK AO2 SLP104 T03170200

This weather information is provided by the National Weather Service.
It is automatically refreshed every three minutes.
Design by Ariel Llizo
© Dean International Inc. 2012